Other Public Products
Issued by NWS Grand Forks, ND

Home | Current Version | Previous Version | Text Only | Print | Product List | Glossary Off
Versions: 1 2 3 4 5 6 7 8 9 10 11 12 13 14 15 16 17 18 19 20 21 22 23 24 25 26 27 28 29 30 31 32 33 34 35 36 37 38 39 40 41 42 43 44 45 46 47 48 49 50

000
FPUS83 KFGF 241031
OPUFGF
PRAIRIE TO PINES WEATHER ROUNDUP
NATIONAL WEATHER SERVICE EASTERN NORTH DAKOTA/GRAND FORKS ND
500 AM CDT WED AUG 24 2016

 **SATELLITE DATA USED TO AUGMENT SKY COVER AT AUTOMATED STATIONS**
 *****  WEATHER ACROSS EASTERN NORTH DAKOTA  *****

CITY           SKY/WX    TMP DP  RH WIND       PRES   REMARKS
GRAND FORKS    PTCLDY    56  52  86 W6        29.80S
GRAND FORKS AF CLEAR     59  51  75 W8        29.81R
GRAND CITY NWS   N/A     57 N/A N/A W6          N/A
BUXTON           N/A     43  57 100 W5          N/A
DEVILS LAKE    CLEAR     60  51  72 W13       29.85S
FARGO          CLEAR     58  51  78 W6        29.84R
WAHPETON ARPT  SUNNY     54  50  87 W8        29.86R
$$

 *****  WEATHER ACROSS CENTRAL AND WESTERN NORTH DAKOTA  *****

CITY           SKY/WX    TMP DP  RH WIND       PRES   REMARKS
JAMESTOWN      CLOUDY    56  50  80 W7        29.89R
BISMARCK       CLEAR     56  47  71 W9        29.97R
MINOT          CLEAR     58  49  72 SW12      29.89R
MINOT AFB      CLEAR     54  49  81 SW7       29.88R
GARRISON         N/A     54  49  83 W9        29.93R
WILLISTON      PTCLDY    59  48  67 W21       29.94S
DICKINSON      CLEAR     55  47  74 W16       30.00S
HETTINGER      CLEAR     49  44  83 W10       30.07R
$$

 *****  OTHER OBSERVATIONS NORTHEAST NORTH DAKOTA  *****

CITY           SKY/WX    TMP DP  RH WIND       PRES   REMARKS
WALHALLA       FAIR      57  54  88 SW5       29.78S
LANGDON        CLOUDY    52  50  93 W8        29.81S
CAVALIER       FAIR      55  50  82 SW3       29.78S
GRAFTON        FAIR      54  54 100 SW6       29.81R
CANDO          FAIR      52  52 100 W8        29.85S
FORT TOTTEN      N/A     57  48  73 W3        29.95S
ROLLA          FAIR      55  50  82 W12G18    29.83S
RUGBY          NOT AVBL
 ***** THE ABOVE OBSERVATIONS ARE NON NWS ARE NOT QUALITY
        CONTROLLED AND MAY MIS-REPORT RAIN FOR SNOW...
$$

 *****  OTHER OBSERVATIONS SOUTHEAST NORTH DAKOTA *****

CITY           SKY/WX    TMP DP  RH WIND       PRES   REMARKS
COOPERSTOWN    NOT AVBL
VALLEY CITY    FAIR      55  54  94 W8        29.91R
OAKES            N/A    N/A N/A N/A MISG        N/A
GWINNER        FAIR      57  52  82 W12       29.91R
SHEYENNE NWR     N/A     56  50  80 NW5       29.95S
BUFFALO          N/A     53  49  86 SW5         N/A
WYNDMERE         N/A     57  54  88 W5          N/A
 ***** THE ABOVE OBSERVATIONS ARE NON NWS ARE NOT QUALITY
       CONTROLLED AND MAY MIS-REPORT RAIN FOR SNOW...
$$

  *****  WEATHER ACROSS NORTHERN MINNESOTA  *****

CITY           SKY/WX    TMP DP  RH WIND       PRES   REMARKS
FLAG ISLAND    PTCLDY    68  64  88 W5        29.72R
WARROAD        MOCLDY    64  61  88 W7        29.77R
ROSEAU         MOCLDY    64  61  88 W5        29.77R
HALLOCK        PTCLDY    54  52  94 S3        29.77R
THF RVR FALLS  CLEAR     56  53  90 SW7       29.82R
HALSTAD          N/A     55  52  88 W6          N/A
FOSSTON        CLOUDY    55  52  88 CALM      29.84S
BAUDETTE       CLOUDY    69  66  90 W8        29.75R
WASKISH        MOCLDY    70  66  88 W10       29.78R
CROOKSTON      CLEAR     55  54  94 CALM      29.82S
$$
  *****  WEATHER ACROSS CENTRAL AND WEST MINNESOTA  *****

CITY           SKY/WX    TMP DP  RH WIND       PRES   REMARKS
BEMIDJI        CLOUDY    67  61  80 W8        29.80S
PARK RAPIDS    CLOUDY    69  65  86 NW8       29.82S
WADENA         CLOUDY    64  64 100 NW6       29.83S
DETROIT LAKES  CLOUDY    63  54  72 NW5       29.86R
MOORHEAD       CLEAR     57  52  82 W6        29.86R
FERGUS FALLS   PTCLDY    63  63 100 N6        29.86S
ELBOW LAKE     PTSUNNY   65  63  93 W7        29.86R
MORRIS MN      CLEAR     63  59  88 NW7       29.85R
STAPLES        CLOUDY    64  64 100 SW3       29.83S FOG
WHEATON        CLEAR     61  55  82 W3        29.89R
$$
  *****  WEATHER ELSEWHERE ACROSS MINNESOTA  *****

CITY           SKY/WX    TMP DP  RH WIND       PRES   REMARKS
DULUTH         CLOUDY    67  63  87 SW5       29.82F
INTRNTL FALLS  CLOUDY    71  65  81 VRB3      29.75F
ELY            CLOUDY    63  61  94 S6        29.83R
CLOQUET        CLOUDY    64  63  94 CALM      29.82F
BRAINERD       CLOUDY    65  64  97 SW5       29.83S
HIBBING        CLOUDY    60  60 100 CALM      29.82S FOG
ALEXANDRIA     CLOUDY    68  66  93 NW7       29.86R
SAINT CLOUD    CLOUDY    67  67 100 SW3       29.82S
MINNEAPOLIS    CLOUDY    69  66  90 SW8       29.80F
$$

  *****  WEATHER ACROSS SOUTH DAKOTA  *****

CITY           SKY/WX    TMP DP  RH WIND       PRES   REMARKS
SIOUX FALLS    CLEAR     67  58  72 N12       29.89R
BROOKINGS      CLEAR     61  56  83 N6        29.90
WATERTOWN      CLEAR     59  53  80 NW6       29.91R
HURON          CLEAR     53  47  79 W6        29.94R
SISSETON         N/A     56  50  80 NW6       29.87R
ABERDEEN       CLEAR     53  47  79 W5        29.94R
MITCHELL       CLEAR     56  49  77 W6        29.97R
PIERRE         CLEAR     54  43  66 W12       29.99R
MOBRIDGE       PTCLDY    58  44  60 NW3       29.97S
RAPID CITY     PTCLDY    61  38  42 N14       30.12R
$$

  *****  SOME WEATHER IN NEARBY STATES *****

CITY           SKY/WX    TMP DP  RH WIND       PRES   REMARKS
GLASGOW MT     CLEAR     55  49  80 W21       30.04S
GREAT FALLS MT CLOUDY    53  44  71 W5        30.30S
CHEYENNE WY    CLOUDY    57  38  48 SW3       30.18F
SCOTTSBLUFF NE PTCLDY    57  43  59 NE8       30.12S
OMAHA NE       CLOUDY    68  63  84 S3        29.89S
DES MOINES IA  CLOUDY    69  67  93 SW6       29.86S
DAVENPORT IA   TSTM      72  70  93 W3        29.94S VSB 3/4
CHICAGO IL     MOCLDY    71  65  81 S12       30.00F
EAU CLAIRE WI  CLOUDY    67  66  97 S6        29.80F
LA CROSSE WI   CLOUDY    68  32  26 S9        29.82F
$$

  *****  SOME NATIONAL WEATHER *****

CITY           SKY/WX    TMP DP  RH WIND       PRES   REMARKS
LA GUARDIA NY  PTCLDY    72  59  63 SW3       30.26R
RALEIGH NC     PTCLDY    65  61  87 CALM      30.29R
ATLANTA GA     MOCLDY    75  73  93 SE5       30.24S
NEW ORLEANS LA MOCLDY    82  77  84 NW3       30.12S HX  90
OKLAHOMA CITY  CLOUDY    78  68  71 S15       30.01R
ALBUQUERQUE NM CLEAR     63  50  62 N5        30.22R
SALT LAKE CITY FAIR      63  31  30 S5        30.10R
LOS ANGELES CA FAIR      66  59  78 CALM      30.02S
BOISE ID       FAIR      55  38  52 SW5       30.10R
SEATTLE WA     FAIR      64  52  64 NE6       30.20S
$$

*** WEATHER ACROSS MANITOBA...SASKATCHEWAN AND ONTARIO ***
                ***ONTARIO***

CITY           SKY/WX    TMP DP  RH WIND       PRES   REMARKS
GERALDTON      PTCLDY    64  61  88 S6        29.82F
THUNDER BAY    CLEAR     63  63 100 VRB2      29.81F
SIOUX LOOKOUT  MOCLDY    72  68  88 S8        29.70F
TORONTO        PTCLDY    63  57  82 W3        30.20R
BIG TROUT LK   CLOUDY    55  48  76 E7        29.86F
PICKLE LAKE    NOT AVBL
DRYDEN         CLOUDY    72  68  88 S12       29.70F
KENORA         MOCLDY    66  63  88 W10       29.71R
$$
                *** MANITOBA***

CITY           SKY/WX    TMP DP  RH WIND       PRES   REMARKS
BRANDON        PTCLDY    50  48  93 SW7       29.77S
DAUPHIN        CLEAR     48  46  93 W6        29.73R
ISLAND LAKE    LGT RAIN  59  50  72 E6G17     29.83R
PILOT MOUND      N/A     48  46  93 SW6         N/A
THE PAS        RAIN      57  54  88 N9        29.90R
THOMPSON       MOCLDY    52  48  87 NE12G17   29.95R
WINNIPEG       PTCLDY    59  59 100 W8        29.72S
LYNN LAKE      MOCLDY    48  46  93 MISG      30.05R
CHURCHILL      PTCLDY    48  46  93 NW7       30.00R
GILLAM         PTCLDY    50  48  93 NE5       29.98R
$$
                ***SASKATCHEWAN***

CITY           SKY/WX    TMP DP  RH WIND       PRES   REMARKS
ESTEVAN        PTCLDY    57  52  82 W15G23    29.85S
KINDERSLEY     CLOUDY    50  46  87 NW16G24   30.10R
LLOYDMINSTER   CLOUDY    52  46  82 NW12      30.16R
PRINCE ALBERT  CLOUDY    52  50  93 N10       29.99
REGINA         LGT RAIN  54  52  94 W15G26    29.85S
YORKTON        LGT RAIN  55  55 100 N9        29.75R FOC1F1C2F2C3F3C4F4C5F5C6F6C7F7C8F8C9F9CaFaCbFbCcFcCdFdCe!



USA.gov is the U.S. government's official web portal to all federal, state and local government web resources and services.